{"data":{"norad_id":58464,"intl_designator":"2023-185C","name":"KOYOH","alt_names":[],"object_type":"PAYLOAD","status":"ACTIVE","operator":null,"country":"JPN","launch_date":"2023-12-01","launch_site_code":"AFWTR","launch_vehicle":null,"mission":null,"orbit_class":"UNKNOWN","rcs_meters":null,"size_class":null,"mass_kg":null,"dimensions":null,"purposes":[],"wikipedia_slug":null,"has_3d_model":false,"image_url":null,"decayed_at":null,"tle_current":{"epoch":"2026-09-21T22:55:16.834080Z","epoch_age_seconds":119249,"freshness":"FRESH","line1":"1 58464U 23185C   26264.95505595  .00003746  00000+0  18179-3 0  9997","line2":"2 58464  97.5235 336.7778 0006007 342.6177  17.4850 15.19095712154818","mean_motion":15.19095712,"eccentricity":0.0006007,"inclination_deg":97.5235,"raan_deg":336.7778,"arg_perigee_deg":342.6177,"mean_anomaly_deg":17.485,"bstar":0.00018179,"rev_number":15481,"period_min":94.793237096571,"perigee_km":504.43542809948,"apogee_km":512.70912062169,"semimajor_km":6886.7092743606,"source":"CELESTRAK","updated_at":"2026-09-22T09:00:26.668525Z"}}}